sat.trackr.live / text

‹ back to catalog

SITRO-AIS 18

NORAD 61790 · 2024-199BH

PAYLOAD ACTIVE UNKNOWN

§ Identity

Operator
Country
CIS
Launch date
2024-11-04
Launch site
VOSTO
Launch vehicle
Mass (kg)
RCS (m²)

External: N2YO · Heavens-Above · Gunter

§ Orbital elements

Epoch: 2026-05-25T04:38:14.351424Z

Period
96.14 min
Inclination
97.3260°
Eccentricity
0.0006936
Mean motion
14.97776917 rev/d
Perigee alt
568.9 km
Apogee alt
578.6 km
Semi-major
6,951.9 km
B*
1.6692e-4
RAAN
346.1899°
Arg perigee
136.0161°
Mean anomaly
224.1615°
Rev number
12,859

§ Raw data

SITRO-AIS 181 61790U 24199BH  26145.19322166  .00001907  00000+0  16692-3 0  99992 61790  97.3260 346.1899 0006936 136.0161 224.1615 14.97776917128598

JSON: /api/v1/satellites/61790 · /tle

For live sub-satellite position, see the globe view (requires WebGL).

§ Visibility from observer

Set your observer location to see the next 7 days of passes ≥ 10°. The values pass through the URL so the page stays shareable.

No JS? Fill the form by hand. The geolocation button needs JavaScript.

§ Radio — SatNOGS DB

ModeDescriptionDownlinkUplink
GMSK USP Mode U - GMSK2k4 - USP 401.115 MHz

1 transmitter · refreshed weekly from db.satnogs.org